timestamp,surface_pressure_avg,surface_temp_avg,battery_voltage,lat,long
2018-07-19 00:00:00+00:00,229.2131,14.5,13.05,47.84626,-54.09684
2018-07-19 00:10:00+00:00,230.3731,14.59,13.05,47.84626,-54.09684
2018-07-19 00:20:00+00:00,233.8615,14.6,13.05,47.84626,-54.09684
2018-07-19 00:30:00+00:00,237.6647,14.64,13.05,47.84626,-54.09684
2018-07-19 00:40:00+00:00,240.5547,14.65,13.13,47.84626,-54.09684
2018-07-19 00:50:00+00:00,243.4164,14.6,13.13,47.84626,-54.09684
2018-07-19 01:00:00+00:00,249.2081,14.6,13.05,47.84626,-54.09684
2018-07-19 01:10:00+00:00,256.2614,14.6,12.97,47.84626,-54.09684
2018-07-19 01:20:00+00:00,262.1914,14.4,13.05,47.84626,-54.09684
2018-07-19 01:30:00+00:00,268.1215,13.88,13.05,47.84626,-54.09684
2018-07-19 01:40:00+00:00,277.3181,13.26,13.05,47.84626,-54.09684
2018-07-19 01:50:00+00:00,285.2996,12.87,13.05,47.84626,-54.09684
2018-07-19 02:00:00+00:00,293.9914,12.5,13.05,47.84626,-54.09684
2018-07-19 02:10:00+00:00,302.413,12.3,12.97,47.84626,-54.09684
2018-07-19 02:20:00+00:00,309.2513,12.3,13.05,47.84626,-54.09684
2018-07-19 02:30:00+00:00,314.0897,12.12,13.05,47.84626,-54.09684
2018-07-19 02:40:00+00:00,319.213,12.1,13.05,47.84626,-54.09684
2018-07-19 02:50:00+00:00,328.2562,12.06,13.05,47.84626,-54.09684
2018-07-19 03:00:00+00:00,333.3096,12.1,12.97,47.84626,-54.09684
2018-07-19 03:10:00+00:00,332.3063,12.26,12.97,47.84626,-54.09684
2018-07-19 03:20:00+00:00,337.423,12.38,12.97,47.84626,-54.09684
2018-07-19 03:30:00+00:00,344.4947,12.65,12.97,47.84626,-54.09684
2018-07-19 03:40:00+00:00,345.6547,12.87,13.05,47.84626,-54.09684
2018-07-19 03:50:00+00:00,342.7296,13.04,13.05,47.84626,-54.09684
2018-07-19 04:00:00+00:00,346.5596,13.1,12.97,47.84626,-54.09684
2018-07-19 04:10:00+00:00,351.293,13.2,12.89,47.84626,-54.09684
2018-07-19 04:20:00+00:00,350.1714,13.3,12.97,47.84626,-54.09684
2018-07-19 04:30:00+00:00,349.6179,13.3,12.97,47.84626,-54.09684
2018-07-19 04:40:00+00:00,352.793,13.32,12.97,47.84626,-54.09684
2018-07-19 04:50:00+00:00,351.8513,13.52,12.97,47.84626,-54.09684
2018-07-19 05:00:00+00:00,348.518,13.6,12.97,47.84626,-54.09684
2018-07-19 05:10:00+00:00,347.3781,13.57,12.89,47.84626,-54.09684
2018-07-19 05:20:00+00:00,348.6263,13.63,12.97,47.84626,-54.09684
2018-07-19 05:30:00+00:00,348.5446,13.7,12.97,47.84626,-54.09684
2018-07-19 05:40:00+00:00,345.8879,13.65,12.97,47.84626,-54.09684
2018-07-19 05:50:00+00:00,340.7663,13.82,12.97,47.84626,-54.09684
2018-07-19 06:00:00+00:00,336.7812,13.9,12.97,47.84626,-54.09684
2018-07-19 06:10:00+00:00,331.2712,13.87,12.89,47.84626,-54.09684
2018-07-19 06:20:00+00:00,325.858,13.99,12.89,47.84626,-54.09684
2018-07-19 06:30:00+00:00,320.8563,13.89,12.97,47.84626,-54.09684
2018-07-19 06:40:00+00:00,314.9363,13.9,12.97,47.84626,-54.09684
2018-07-19 06:50:00+00:00,307.778,13.9,12.97,47.84626,-54.09684
2018-07-19 07:00:00+00:00,300.6696,14.0,12.89,47.84626,-54.09684
2018-07-19 07:10:00+00:00,294.6897,14.0,12.81,47.84626,-54.09684
2018-07-19 07:20:00+00:00,285.3881,14.0,12.89,47.84626,-54.09684
2018-07-19 07:30:00+00:00,276.7814,13.91,12.89,47.84626,-54.09684
2018-07-19 07:40:00+00:00,267.5198,14.09,12.97,47.84626,-54.09684
2018-07-19 07:50:00+00:00,257.0531,14.4,12.97,47.84626,-54.09684
2018-07-19 08:00:00+00:00,245.9648,14.49,12.89,47.84626,-54.09684
2018-07-19 08:10:00+00:00,233.3848,14.5,12.81,47.84626,-54.09684
2018-07-19 08:20:00+00:00,223.7498,14.5,12.89,47.84626,-54.09684
2018-07-19 08:30:00+00:00,218.9681,14.5,12.89,47.84626,-54.09684
2018-07-19 08:40:00+00:00,214.3998,14.6,12.97,47.84626,-54.09684
2018-07-19 08:50:00+00:00,204.7314,14.7,12.97,47.84626,-54.09684
2018-07-19 09:00:00+00:00,200.2031,14.8,12.89,47.84626,-54.09684
2018-07-19 09:10:00+00:00,202.3914,14.8,12.81,47.84626,-54.09684
2018-07-19 09:20:00+00:00,199.7115,14.79,12.89,47.84626,-54.09684
2018-07-19 09:30:00+00:00,196.6248,14.8,12.89,47.84626,-54.09684
2018-07-19 09:40:00+00:00,196.7281,14.8,12.97,47.84626,-54.09684
2018-07-19 09:50:00+00:00,198.2965,14.8,12.97,47.84626,-54.09684
2018-07-19 10:00:00+00:00,195.9164,14.8,12.89,47.84626,-54.09684
2018-07-19 10:10:00+00:00,195.3198,14.8,12.81,47.84626,-54.09684
2018-07-19 10:20:00+00:00,201.2631,14.71,12.89,47.84626,-54.09684
2018-07-19 10:30:00+00:00,206.0548,14.62,12.89,47.84626,-54.09684
2018-07-19 10:40:00+00:00,208.7981,14.6,12.97,47.84626,-54.09684
2018-07-19 10:50:00+00:00,208.8498,14.6,12.97,47.84626,-54.09684
2018-07-19 11:00:00+00:00,214.2831,14.6,12.97,47.84626,-54.09684
2018-07-19 11:10:00+00:00,219.1431,14.5,12.89,47.84626,-54.09684
2018-07-19 11:20:00+00:00,221.2231,14.4,12.97,47.84626,-54.09684
2018-07-19 11:30:00+00:00,225.5132,14.44,13.05,47.84626,-54.09684
2018-07-19 11:40:00+00:00,227.9797,14.36,13.05,47.84626,-54.09684
2018-07-19 11:50:00+00:00,226.3198,14.3,13.05,47.84626,-54.09684
2018-07-19 12:00:00+00:00,225.0414,14.39,13.05,47.84626,-54.09684
2018-07-19 12:10:00+00:00,226.2364,14.49,12.97,47.84626,-54.09684
2018-07-19 12:20:00+00:00,226.2548,14.6,13.13,47.84626,-54.09684
2018-07-19 12:30:00+00:00,227.9131,14.5,13.13,47.84626,-54.09684
2018-07-19 12:40:00+00:00,230.9181,14.5,13.21,47.84626,-54.09684
2018-07-19 12:50:00+00:00,232.1648,14.5,13.29,47.84626,-54.09684
2018-07-19 13:00:00+00:00,234.2965,14.56,13.29,47.84626,-54.09684
2018-07-19 13:10:00+00:00,239.3565,14.6,13.29,47.84626,-54.09684
2018-07-19 13:20:00+00:00,243.3497,14.5,13.44,47.84626,-54.09684
2018-07-19 13:30:00+00:00,245.5181,14.3,13.53,47.84626,-54.09684
2018-07-19 13:40:00+00:00,251.8814,14.24,13.53,47.84626,-54.09684
2018-07-19 13:50:00+00:00,260.9647,14.3,13.6,47.84626,-54.09684
2018-07-19 14:00:00+00:00,265.0031,14.2,13.6,47.84626,-54.09684
2018-07-19 14:10:00+00:00,271.7381,14.15,13.53,47.84626,-54.09684
2018-07-19 14:20:00+00:00,281.5581,14.1,13.68,47.84626,-54.09684
2018-07-19 14:30:00+00:00,290.9014,14.0,13.6,47.84626,-54.09684
2018-07-19 14:40:00+00:00,296.3297,14.0,13.6,47.84626,-54.09684
2018-07-19 14:50:00+00:00,302.393,13.96,13.68,47.84626,-54.09684
2018-07-19 15:00:00+00:00,309.2897,13.8,13.53,47.84626,-54.09684
2018-07-19 15:10:00+00:00,312.588,13.8,13.37,47.84626,-54.09684
2018-07-19 15:20:00+00:00,319.703,13.7,13.53,47.84626,-54.09684
2018-07-19 15:30:00+00:00,324.7097,13.79,13.6,47.84626,-54.09684
2018-07-19 15:40:00+00:00,324.9063,13.8,13.6,47.84626,-54.09684
2018-07-19 15:50:00+00:00,324.3297,13.7,13.68,47.84626,-54.09684
2018-07-19 16:00:00+00:00,328.1513,13.8,13.68,47.84626,-54.09684
2018-07-19 16:10:00+00:00,335.458,13.52,13.6,47.84626,-54.09684
2018-07-19 16:20:00+00:00,334.6163,13.5,13.6,47.84626,-54.09684
2018-07-19 16:30:00+00:00,337.6595,13.55,13.6,47.84626,-54.09684
2018-07-19 16:40:00+00:00,343.233,13.6,13.6,47.84626,-54.09684
2018-07-19 16:50:00+00:00,337.4446,13.5,13.6,47.84626,-54.09684
2018-07-19 17:00:00+00:00,338.2546,13.6,13.53,47.84626,-54.09684
2018-07-19 17:10:00+00:00,344.4579,13.9,13.37,47.84626,-54.09684
2018-07-19 17:20:00+00:00,345.1596,13.9,13.53,47.84626,-54.09684
2018-07-19 17:30:00+00:00,337.9547,13.9,13.53,47.84626,-54.09684
2018-07-19 17:40:00+00:00,338.2463,14.09,13.6,47.84626,-54.09684
2018-07-19 17:50:00+00:00,341.4695,14.2,13.6,47.84626,-54.09684
2018-07-19 18:00:00+00:00,335.418,14.2,13.53,47.84626,-54.09684
2018-07-19 18:10:00+00:00,331.3113,14.07,13.37,47.84626,-54.09684
2018-07-19 18:20:00+00:00,331.2413,14.18,13.44,47.84626,-54.09684
2018-07-19 18:30:00+00:00,329.0797,14.1,13.44,47.84626,-54.09684
2018-07-19 18:40:00+00:00,322.528,14.1,13.53,47.84626,-54.09684
2018-07-19 18:50:00+00:00,317.5614,14.1,13.53,47.84626,-54.09684
2018-07-19 19:00:00+00:00,314.4348,14.14,13.44,47.84626,-54.09684
2018-07-19 19:10:00+00:00,302.4497,14.17,13.37,47.84626,-54.09684
2018-07-19 19:20:00+00:00,292.658,14.1,13.37,47.84626,-54.09684
2018-07-19 19:30:00+00:00,286.4764,14.02,13.37,47.84626,-54.09684
2018-07-19 19:40:00+00:00,280.1914,14.16,13.37,47.84626,-54.09684
2018-07-19 19:50:00+00:00,266.9331,14.35,13.37,47.84626,-54.09684
2018-07-19 20:00:00+00:00,260.8564,14.19,13.29,47.84626,-54.09684
2018-07-19 20:10:00+00:00,259.7148,14.12,13.21,47.84626,-54.09684
2018-07-19 20:20:00+00:00,254.4747,14.3,13.29,47.84626,-54.09684
2018-07-19 20:30:00+00:00,244.7097,14.29,13.29,47.84626,-54.09684
2018-07-19 20:40:00+00:00,238.1681,14.14,13.29,47.84626,-54.09684
2018-07-19 20:50:00+00:00,231.3048,14.35,13.29,47.84626,-54.09684
2018-07-19 21:00:00+00:00,223.2231,14.5,13.21,47.84626,-54.09684
2018-07-19 21:10:00+00:00,218.8015,14.5,13.13,47.84626,-54.09684
2018-07-19 21:20:00+00:00,216.6614,14.6,13.21,47.84626,-54.09684
2018-07-19 21:30:00+00:00,215.3731,14.6,13.21,47.84626,-54.09684
2018-07-19 21:40:00+00:00,212.8181,14.76,13.21,47.84626,-54.09684
2018-07-19 21:50:00+00:00,208.3781,14.82,13.21,47.84626,-54.09684
2018-07-19 22:00:00+00:00,207.2715,14.83,13.13,47.84626,-54.09684
2018-07-19 22:10:00+00:00,207.9281,14.82,13.05,47.84626,-54.09684
2018-07-19 22:20:00+00:00,206.9998,14.9,13.13,47.84626,-54.09684
2018-07-19 22:30:00+00:00,203.6581,14.8,13.13,47.84626,-54.09684
2018-07-19 22:40:00+00:00,204.4965,14.79,13.13,47.84626,-54.09684
2018-07-19 22:50:00+00:00,213.8548,14.9,13.13,47.84626,-54.09684
2018-07-19 23:00:00+00:00,219.2131,14.79,13.05,47.84626,-54.09684
2018-07-19 23:10:00+00:00,215.8181,14.8,12.97,47.84626,-54.09684
2018-07-19 23:20:00+00:00,214.2414,14.7,13.05,47.84626,-54.09684
2018-07-19 23:30:00+00:00,220.4498,14.64,13.05,47.84626,-54.09684
2018-07-19 23:40:00+00:00,221.7364,14.23,13.05,47.84626,-54.09684
2018-07-19 23:50:00+00:00,219.2881,14.0,13.05,47.84626,-54.09684
